ImprimablePdf
Antwerp, 25/04/2010, BEL - DVV Antwerp Marathon & 10 Miles
Liste des rapports > 10 Miles - Classement + Video
Recherche: Page: 1 [2] 3
562 Entrées
 
Les réclamations ne sont plus acceptées, les résultats sont considérés comme définitifs.
RangNrNomAgeIOCTempsTkmMoy.ScrLocalité
198.13870FSCHRAM Sigrid36BEL1:37:096:03 9.948505OELEGEM
199.4067FHAERENS Kim39BEL1:37:146:03 9.938532HERENTALS
200.2362FPALMAERS Ilse39BEL1:37:206:03 9.928575BILZEN
201.14241FOBASOHAN Roselyn39BEL1:37:276:04 9.918620MERKSEM (ANTWERPEN)
202.19427FGROBBEN Goele35BEL1:37:286:04 9.918626LEUVEN
203.9586FVAN ELSACKER Veronique35BEL1:37:316:04 9.908636SCHILDE
204.6186FCANT Isabelle35BEL1:37:336:04 9.908659ZWIJNAARDE
205.13866FVAN PASSEL Catherine36BEL1:37:506:05 9.878769SCHILDE
206.10796FDE LEEUW Inge38BEL1:37:526:05 9.878776LEUVEN
207.18771FGEERS Inge37BEL1:37:546:05 9.868798TEMSE
208.11878FDE BLOCK Veerle37BEL1:37:556:06 9.868807KAPELLEN (ANTW.)
209.13646FKNUYFF Kim38BEL1:37:586:06 9.868823ZOERSEL
210.7459FROSSIE Alice38BEL1:37:586:06 9.868824LINT
211.9594FVAN DER GUCHT Kathy39BEL1:38:026:06 9.858846SCHILDE
212.13416FJANSSENS Greetje36BEL1:38:026:06 9.858850KALMTHOUT
213.1196FDEWILDE Sabrina39BEL1:38:106:06 9.848897HOUTHEM
214.5652FOTTEVAERE Sally38BEL1:38:116:06 9.848903BERCHEM (ANTWERPEN)
215.8184FMORTELMANS Lynsey35BEL1:38:196:07 9.828958LIER
216.14252FJORDENS Inez38BEL1:38:196:07 9.828959HASSELT
217.1755FBOCKEN Veronique37BEL1:38:206:07 9.828968BRAINE-LE-COMTE
218.7776FGOOVAERTS Vicky35BEL1:38:226:07 9.828973BERLAAR
219.3892FVERHAERT Ellen39BEL1:38:276:08 9.819004ANTWERPEN
220.6685FHANNES Saskia36BEL1:38:326:08 9.809036STEKENE
221.18474FCOCKAERT Kathleen38BEL1:38:336:08 9.809042DUFFEL
222.13742FVANDER VEKEN Katleen36BEL1:38:336:08 9.809046KAPELLEN
223.1733FDIERICKX Sophie35BEL1:38:416:08 9.799111ANTWERPEN
224.19369FVAN WILDERODE Ilse39BEL1:38:466:09 9.789150SINT-KATELIJNE-WAVER
225.12247FBALOGH Katalin37BEL1:38:466:09 9.789152ANTWERPEN 1
226.19278FIEMANTS Tania35BEL1:38:516:09 9.779185WILLEBROEK
227.13872FSMANS Sabine36BEL1:38:516:09 9.779189ANTWERPEN 1
228.3044FPHILIPS Nele35BEL1:38:526:09 9.779196KESSEL-LO
229.8608FGEERS Ira35BEL1:39:046:10 9.759276DEURNE (ANTWERPEN)
230.16650FVAN AUDENHOVE An39BEL1:39:086:10 9.749302DILBEEK
231.8427FMAENHOUT Veerle35BEL1:39:106:10 9.749313KAPELLEN
232.7931FPOLFLIET Veronique37BEL1:39:146:10 9.739343SINT-PAUWELS
233.3161FDHAESE Sofie38BEL1:39:246:11 9.729404ZWIJNAARDE
234.247FFOLLON Joke35BEL1:39:326:12 9.709445KAPELLE OP DEN BOS
235.8148FMERCKAERT Isabelle35BEL1:39:366:12 9.709459SINT-JOB-IN-'T-GOOR
236.5869FDE PAUW Adinda38BEL1:39:406:12 9.699491BAASRODE
237.3597FDE BOEL Ilke37BEL1:39:446:12 9.689513ANTWERPEN 1
238.5870FSEGAERT Sara36BEL1:39:506:13 9.679550WOLVERTEM
239.8680FDE MUNCK Michele38BEL1:39:556:13 9.679577GRIMBERGEN
240.19406FDUCKAERT An36BEL1:39:596:13 9.669591BERCHEM
241.4483FDE ROOVER Marjo39BEL1:40:026:13 9.659615WESTMALLE
242.10634FVAN THOOR Danyelle38BEL1:40:086:14 9.659641ANTWERPEN
243.2395FHAENTJENS Hilde39BEL1:40:116:14 9.649660VERREBROEK
244.7597FCELIS Annemie37BEL1:40:126:14 9.649663HOBOKEN
245.9851FARNOUT Birgit36BEL1:40:136:14 9.649672BOOM
246.6068FVERHEYEN Wendy37BEL1:40:216:15 9.629710RAVELS
247.1126FVAN DYCK Annelies35BEL1:40:236:15 9.629721'S GRAVENWEZEL
248.4526FOOSTVOGELS Christel39BEL1:40:246:15 9.629725BEERSE
249.9577FREYMER Joke37BEL1:40:246:15 9.629727SCHOTEN
250.19789FDE RIDDER Sofie37BEL1:40:366:15 9.609780KRUIBEKE
251.1381FENTBROUXK Siska37BEL1:40:416:16 9.599809BOECHOUT
252.15433FDE GRAAF Marianne38BEL1:40:436:16 9.599818
253.9597FDE GROOF Nadia39BEL1:40:576:17 9.579891SCHILDE
254.4484FAARAB Rachida39BEL1:41:046:17 9.569918ANTWERPEN 4
255.2989FBAUWENS Veerle37BEL1:41:046:17 9.569919SINT NIKLAAS
256.19217FDIERCKX Isabelle35BEL1:41:066:17 9.559931ZOERSEL
257.10857FDEBAVEYE Alexandra39BEL1:41:076:17 9.559934HEVERLEE
258.3384FLAMBRECHTS Christel37BEL1:41:106:18 9.559946NIEL
259.5497FLIMBOURG Cindy38BEL1:41:226:18 9.5310019SINT KATHERINA LOMBEEK
260.4119FTROCH Vicky38BEL1:41:226:18 9.5310020TERNAT
261.10944FDEBRUYN Liesbeth35BEL1:41:246:18 9.5210034MERKSEM (ANTWERPEN)
262.3661FAERTS Ingrid36BEL1:41:346:19 9.5110088VEERLE
263.2551FDE KEYSER Katrien35BEL1:41:346:19 9.5110090BRASSCHAAT
264.19197FVAN DE VELDE An36BEL1:41:366:19 9.5110105ANTWERPEN 1
265.16859FDEN HERTOG Eveline38BEL1:41:386:19 9.5010120
266.5307FRAEMDONCK Mieke36BEL1:41:396:19 9.5010131EDEGEM
267.3953FVAN KERKHOVEN An39BEL1:41:416:20 9.5010145BERCHEM
268.11191FBRANTS Griet38BEL1:41:466:20 9.4910170GROBBENDONK
269.14216FQUICKFALL Anna39BEL1:41:486:20 9.4910187BRASSCHAAT
270.14334FVAN HOEYDONCK Priscilla38BEL1:41:506:20 9.4810199WUUSTWEZEL
271.19128FVAN HEG Els36BEL1:41:546:20 9.4810219SINT-NIKLAAS
272.7319FNIJS Katrien36BEL1:42:016:21 9.4710262BORNEM
273.7828FSEPS Katleen36BEL1:42:026:21 9.4710270PUURS
274.6577FSCHRYVERS Wendy38BEL1:42:066:21 9.4610289STABROEK
275.6515FSELLESLAGH Heidi36BEL1:42:126:21 9.4510315SINT KATELIJNE WAVER
276.16761FHOORNAERT Veerle37BEL1:42:166:22 9.4410332
277.11206FMAES Isabelle37BEL1:42:226:22 9.4310363SINT PAUWELS
278.10101FDE JONGH Nathalie39BEL1:42:226:22 9.4310366BRASSCHAAT
279.8998FVAN DE WALLE Sandra37BEL1:42:316:23 9.4210411WIJNEGEM
280.5294FDE BAERDEMAEKER Anneleen38BEL1:42:356:23 9.4110424MERCHTEM
281.13237FRAEMDONCK Liesje35BEL1:42:386:23 9.4110431SINT-AMANDS
282.2846FTEUGHELS Anja39BEL1:42:396:23 9.4110439HOMBEEK
283.2205FDE WEERDT Annette37BEL1:42:456:23 9.4010473SCHELLE
284.4670FVANDOREN Katja39BEL1:42:486:24 9.3910487PAAL
285.2025FJACOBS Ester39BEL1:42:536:24 9.3910515ANTWERPEN
286.11649FDE COSTER Sendy37BEL1:42:566:24 9.3810536TIELT-WINGE
287.2203FTHIELS Katrien35BEL1:43:026:25 9.3710564LANGDORP
288.6603FDEROO Katleen37BEL1:43:036:25 9.3710569TIELT
289.4908FBAUWENS Patty39BEL1:43:066:25 9.3710579ONZE-LIEVE-VROUW-LOMBEEK
290.2786FDURIEUX Kathy39BEL1:43:106:25 9.3610601HEINDONK
291.19297FPEETERS Anouk35BEL1:43:116:25 9.3610609ANTWERPEN 2
292.8860FBUNNENS Greet37BEL1:43:126:25 9.3610616BAAL
293.2171FMANNAERTS Cindy35BEL1:43:226:26 9.3410659DEURNE (BT.)
294.10629FCALEWAERT Elke37BEL1:43:236:26 9.3410667KALMTHOUT
295.4787FDE RIJCKE Katy36BEL1:43:256:26 9.3410674WETTEREN
296.18676FLEISSING Francesca37BEL1:43:306:26 9.3310708BRASSCHAAT
297.5300FVAN HAVERE Sophie36BEL1:43:346:27 9.3310730TEMSE
298.4500FKLINKERS Anouk35BEL1:43:436:27 9.3110771WESTERLO
299.4934FJANSSENS Inge36BEL1:43:446:27 9.3110775ANTWERPEN
300.19007FDE GENDT Els35BEL1:43:446:27 9.3110777STEKENE
301.13612FDE WAEL Kristel38BEL1:43:466:27 9.3110787LOKEREN
302.6905FSANNEN Sandra39BEL1:43:466:27 9.3110794VORST LAAKDAL
303.4508FERVIN Jennifer36BEL1:43:476:27 9.3110797SINT-LAMBRECHTS - WOLUWE
304.12208FVAN NOPPEN Inge35BEL1:43:576:28 9.2910844ANTWERPEN
305.8061FDE HERDT Daphne37BEL1:44:016:28 9.2910870KONTICH
306.11454FVANHOLLEBEKE Kristel38BEL1:44:026:28 9.2810879ZOERSEL
307.1918FDE BRANT Shane35BEL1:44:026:28 9.2810880WILRIJK
308.1079FVAN DEN CLOOT Cathy37BEL1:44:036:28 9.2810885ANTWERPEN 6
309.11463FVAN MIERLO Marie-Christine39BEL1:44:036:28 9.2810887ZOERSEL
310.7020FRYNGAERT Annik38BEL1:44:046:28 9.2810894DEURNE (ANTWERPEN)
311.6384FMILLAR Susan39BEL1:44:086:29 9.2710909BRUXELLES
312.2572FBRUYNSEELS Patricia37BEL1:44:106:29 9.2710917BONHEIDEN
313.3511FJACOBS Isabelle35BEL1:44:106:29 9.2710918DEURNE
314.1151FVAN LIEMPT-SLOCK Sheila37NLD1:44:156:29 9.2610957'S-HERTOGENBOSCH
315.10080FDE KIMPE Anita39BEL1:44:166:29 9.2610960BAZEL
316.19363FWAES Katrien39BEL1:44:166:29 9.2610962LIER
317.16503FGEERTS Kristien35BEL1:44:186:29 9.2610977
318.5117FVERMEIREN Wendy36BEL1:44:256:30 9.2511018HEIST OP DEN BERG
319.10607FVANDENABEELE Veerle38BEL1:44:376:30 9.2311071BRUSSEL
320.16602FLASHMANA Lisbeth36BEL1:44:476:31 9.2211118
321.10528FLUYCKX Sandra35BEL1:44:476:31 9.2211119ANTWERPEN 1
322.14943FCASSIERS Tine35BEL1:44:486:31 9.2211121
323.2528FCORNELIS Ellen36BEL1:44:486:31 9.2211123WIJNEGEM
324.1355FDE WIT Marieke37BEL1:44:506:31 9.2111129BOECHOUT
325.6145FVERCRAEYE Anita39BEL1:44:536:31 9.2111135STABROEK
326.1374FCLUKERS Inge35BEL1:44:546:32 9.2111139ZOERSEL
327.6864FDEJARDIN Frederique37BEL1:44:596:32 9.2011156LIERNU
328.14877FDAMAN Wendy36BEL1:44:596:32 9.2011158
329.2982FMOREL Nathalie36BEL1:45:016:32 9.2011162HOMBEEK
330.14303FJANSSENS Marijke37BEL1:45:086:32 9.1911188EKEREN (ANTWERPEN)
331.11999FDE COCK Kristien36BEL1:45:106:33 9.1811200WILRIJK
332.15016FJOOSTENS Isabelle38BEL1:45:136:33 9.1811206
333.16418FVAN DEN HEUVEL Anik37BEL1:45:176:33 9.1711231
334.11249FCAUWENBERG Els35BEL1:45:196:33 9.1711239ESSEN
335.5216FDUBOIS Inge35BEL1:45:216:33 9.1711250OOSTKAMP
336.14408FCRAANE Ann39BEL1:45:316:34 9.1511303VOSSELAAR
337.18952FLEYS Christel38BEL1:45:326:34 9.1511306ERPS-KWERPS
338.1180FVIDTS Els35BEL1:45:346:34 9.1511321SINT-PAUWELS
339.18783FPEELMAN Rita39BEL1:45:426:34 9.1411355NIEUWKERKEN-WAAS
340.2368FKERSSEBEECK Christine39BEL1:45:446:35 9.1311361WILLEBROEK
341.16538FVAN GELUWE Tilly38BEL1:45:446:35 9.1311362
342.2261FENGELS Ilse39BEL1:45:456:35 9.1311372GENT
343.14584FVAN DEN HEUVEL Ilse35BEL1:45:516:35 9.1211386
344.1141FPHILIPS Gaby38BEL1:45:536:35 9.1211394STABROEK
345.6784FBURMEISTER Inke37GER1:45:566:35 9.1211407HAMBURG
346.11129FVAN DE RIET Gina38BEL1:46:056:36 9.1011448DEURNE
347.7605FBARBIER Dorothee38BEL1:46:076:36 9.1011457BINCHE
348.7261FVAN OOSTERHOUT Anke36BEL1:46:126:36 9.0911483BLAASVELD
349.10469FBETZ Tina38BEL1:46:186:37 9.0911503X
350.3448FDE COCK Katrien36BEL1:46:196:37 9.0811507BELSELE
351.13177FDEBURCHGRAVE Fara39BEL1:46:216:37 9.0811515BOECHOUT
352.3754FVAN STEENHOVEN Mirjam39NLD1:46:216:37 9.0811518RIJEN
353.4490FGEERTS Isabel35BEL1:46:266:37 9.0711541SINT-GILLIS-WAAS
354.3903FD'EER Kathleen38BEL1:46:266:37 9.0711542SINT-GILLIS-WAAS
355.2367FLAUWERS Lies35BEL1:46:296:37 9.0711552MECHELEN
356.2847FDE LEEUW Sarah35BEL1:46:296:37 9.0711553WIEZE
357.19279FVEREECKEN Kathy38BEL1:46:306:38 9.0711555WILLEBROEK
358.1553FDOBBELS Sandra36BEL1:46:316:38 9.0711557SINT KATELIJNE WAVER
359.1792FVAN TIGGELEN An36BEL1:46:366:38 9.0611572TIELEN
360.19163FROUSSEAU Ilse39BEL1:46:396:38 9.0611579PUURS
361.2190FCHANTRAIN Nathalie38BEL1:46:436:38 9.0511598SCHOTEN
362.6782FTAETS Nancy37BEL1:46:476:39 9.0411613ANTWERPEN
363.9806FMAES Fanny35BEL1:46:476:39 9.0411614ANTWERPEN
364.8467FDE GRAVE Annick38BEL1:46:506:39 9.0411624EDEGEM
365.10335FDE PAUW Carola39BEL1:46:526:39 9.0411631HOBOKEN
366.1092FDEKERF Valerie36BEL1:46:526:39 9.0411635BERLARE
367.9021FGOETSCHALCKX Marleen36BEL1:47:016:39 9.0311658SCHOTEN
368.2979FHOLZEL Mirjam36BEL1:47:036:40 9.0211673ANTWERPEN
369.4045FCHRISTIAENSEN Kathleen37BEL1:47:126:40 9.0111707MERELBEKE
370.4716FVAN SPAENDONK Manuella39BEL1:47:236:41 8.9911752ANTWERPEN
371.10177FDE MUNCK Mieke38BEL1:47:286:41 8.9911780BEVEREN-WAAS
372.6096FMESKENS An35BEL1:47:286:41 8.9911783BERCHEM
373.13766FVERMEULEN Jill39BEL1:47:326:41 8.9811800SCHOTEN
374.6357FMEHTA Neema37BEL1:47:336:41 8.9811804WILRIJK (ANTWERPEN)
375.7618FVERMEIRE Sofie35BEL1:47:356:42 8.9811812KONTICH
376.7349FDE LOOSE Tina35BEL1:47:366:42 8.9811824HOBOKEN
377.12797FBEELDENS Inge38BEL1:47:406:42 8.9711839BEVEREN-WAAS
378.9294FVAN GOMPEL Inge35BEL1:47:416:42 8.9711843WILRIJK
379.10999FCAALS Anja39BEL1:47:426:42 8.9711854BELSELE
380.10250FVAN RUMST Petra36BEL1:47:446:42 8.9611868KONTICH
381.18168FMOREEL Sofie35BEL1:47:526:43 8.9511906EVERGEM
382.13378FVANDEPLAS Ilse37BEL1:47:586:43 8.9411947ANTWERPEN
383.1793FRAATS Ann38BEL1:48:016:43 8.9411958BRUXELLES 1
384.4720FSTEVENS Miek37BEL1:48:026:43 8.9411962SCHELLE
385.18802FVAN DAMME Isabelle38BEL1:48:086:44 8.9311985WILRIJK
386.12812FDE RIDDER Nancy38BEL1:48:096:44 8.9311986ESSEN
387.5498FVAN HOOYDONCK Ann37BEL1:48:126:44 8.9312001ANTWERPEN
388.1526FMOUTON Marleen38BEL1:48:256:45 8.9112047WAASMUNSTER
389.6133FVAN GEMERT Monique39BEL1:48:296:45 8.9012067TURNHOUT
390.4124FCUNNINGHAM Cliona38BEL1:48:296:45 8.9012069STEENOKKERZEEL
391.18784FSMEKENS Rinda39BEL1:48:346:45 8.9012094NIEUWKERKEN-WAAS
392.4840FBLOCKX Sandra38BEL1:48:426:46 8.8812127DIEST
393.1347FVAN DEN BERGEN Ingrid37BEL1:48:436:46 8.8812133KAPELLEN
394.1150FVERHEYEN Veerle39BEL1:48:446:46 8.8812136BRASSCHAAT
DNF: abandon; DSQ: disqualifié; Vitesse en km/h
ChronoRace - Electronic Timing - www.chronorace.be